Flag for Montenegro Weather past 2 weeks in Nikšić, Montenegro

Now
70 °F

Clear.


Feels Like: 73 °F
Forecast: 58 / 90 °F
Wind: No wind

Location: Niksic

Current Time: Aug 31, 2015 at 1:26:31 AM

Latest Report: Aug 30, 2015 at 11:00 PM


Visibility: 13 mi

Pressure: 30.15 "Hg (28.01 "Hg at 635m altitude)

Humidity: 73%

Dew point: 61 °F

Location of NikšićLocation

Historic Weather in Nikšić — Graph

°F

Nikšić temperature yesterday

Maximum temperature yesterday: 90 °F (at 2:00 PM)
Minimum temperature yesterday: 61 °F (at 6:00 AM)
Average temperature yesterday: 78 °F

Past Weeks' High & Low Weather Summary

 TemperatureHumidityPressure
High91 °F (Aug 29, 5:00 PM)100% (Aug 15, 10:00 PM)30.22 "Hg (Aug 15, 10:00 PM)
Low55 °F (Aug 24, 7:00 AM)31% (Aug 28, 3:00 PM)29.72 "Hg (Aug 16, 6:00 PM)
Average70 °F77%29.98 "Hg
* Reported Aug 15 10:00 PM — Aug 30 10:00 PM, Nikšić, Weather by CustomWeather, © 2015

Note: Actual official high and low records may vary slightly from our data, if they occured in-between our weather recording intervals... More about our weather records

Advertising

Nikšić weather history for previous 24 hours

 ConditionsComfort  
Time TempWeatherWind HumidityBarometerVisibility
10:00 PM
Sun, Aug 30
72 °FClear.2 mph67%30.14 "Hg12 mi
9:00 PM76 °FClear.3 mph60%30.11 "Hg12 mi
8:00 PM79 °FClear.3 mph55%30.10 "Hg12 mi
7:00 PM84 °FSunny.3 mph51%30.08 "Hg12 mi
6:00 PM87 °FSunny.5 mph48%30.06 "Hg12 mi
5:00 PM90 °FSunny.3 mph37%30.06 "Hg12 mi
4:00 PM90 °FSunny.2 mph37%30.07 "Hg12 mi
3:00 PM90 °FSunny.2 mph37%30.07 "Hg12 mi
2:00 PM90 °FSunny.2 mph37%30.10 "Hg12 mi
1:00 PM89 °FSunny.2 mph40%30.12 "Hg12 mi
12:00 PM86 °FSunny.2 mph43%30.13 "Hg12 mi
11:00 AM83 °FSunny.No wind55%30.14 "Hg12 mi
10:00 AM78 °FSunny.2 mph66%30.16 "Hg12 mi
9:00 AM72 °FSunny.No wind75%30.19 "Hg12 mi
8:00 AM64 °FSunny.1 mph89%30.22 "Hg12 mi
7:00 AM61 °FSunny.2 mph91%30.22 "Hg12 mi
6:00 AM61 °FPassing clouds.2 mph91%30.22 "Hg12 mi
5:00 AM62 °FClear.2 mph89%30.20 "Hg12 mi
2:00 AM65 °FClear.2 mph77%30.19 "Hg12 mi
Weather by CustomWeather, © 2015

See weather overviewHow to use our weather pages